Location: Malvern Link
(52.1333°N, 2.3000°W)
Time: 06:30:03
(UTC+00:00)

AO-92 - Pass Details

Date: 10 July 2022
Orbit: 470 x 481 km, 97.4° (Epoch: 07 August)

Event Time Altitude Azimuth Distance (km) Brightness Sun altitude
Exits shadow 21:57:30 14° 163° (SSE) 1,451 ? -9.9°
Maximum altitude 22:00:34 84° 75° (ENE) 493 ? -10.2°
Drops below altitude 10° 22:04:11 10° 348° (NNW) 1,678 ? -10.4°
Sets 22:06:16 0° 347° (NNW) 2,564 ? -10.6°
